Total_Precipitation_Accumulation
2.78 2.94 2.84 2.81 2.48 2.53 2.71 2.75 2.44 2.61 2.57 2.53 2.45 2.41 2.42 2.14 1.96 1.91 1.95 2.14 2.11 2.09 2.30 2.38 2.27 2.21 2.16 1.96 1.78 1.55 1.35 1.25 1.12 1.00 0.92 0.86 0.81 0.72 0.66 0.54 0.47 0.39 0.35
2.42 2.48 2.42 2.48 2.32 2.36 2.44 2.39 2.34 2.63 2.74 2.66 2.32 2.14 2.13 2.14 2.05 1.93 2.07 2.20 2.24 2.05 2.19 2.52 2.69 2.64 2.63 2.44 2.19 1.93 1.68 1.49 1.23 1.02 0.93 0.90 0.83 0.79 0.81 0.80 0.82 0.54 0.41
2.13 2.20 2.24 2.22 2.24 2.15 2.13 2.07 2.12 2.33 2.33 2.30 2.14 1.97 1.98 2.02 2.07 2.06 1.99 2.08 2.16 2.21 2.20 2.38 2.62 2.70 2.87 2.89 2.74 2.38 2.07 1.76 1.42 1.10 0.91 0.86 0.82 0.73 0.72 0.78 0.82 0.62 0.47
1.87 1.98 1.90 1.88 1.86 1.78 1.76 1.95 2.01 2.16 2.31 2.36 2.34 2.08 2.12 2.17 2.02 2.10 2.12 2.08 2.37 2.20 2.45 2.60 2.61 2.59 2.93 3.25 3.37 3.19 2.71 2.11 1.67 1.37 1.12 0.97 0.90 0.82 0.74 0.73 0.72 0.69 0.56
1.71 1.82 1.85 1.89 1.60 1.60 1.64 1.58 1.90 2.06 2.33 2.39 2.02 2.05 1.92 1.91 1.93 1.79 2.02 1.94 2.14 2.28 2.50 2.55 2.65 2.56 2.90 3.58 4.10 4.26 3.74 2.92 2.27 1.92 1.70 1.49 1.30 1.06 0.91 0.88 0.83 0.78 0.71
1.70 1.73 1.65 1.60 1.41 1.55 1.75 1.87 2.28 2.21 2.15 2.17 1.80 2.00 1.84 1.59 1.68 1.78 1.77 1.89 2.01 1.87 2.15 2.48 2.71 2.28 2.64 3.35 3.87 4.32 4.49 4.08 3.32 2.66 2.32 2.10 1.89 1.47 1.05 0.94 0.94 0.91 0.82
1.72 1.80 1.71 1.82 1.54 1.57 1.63 1.63 1.86 2.00 1.91 1.91 2.25 2.34 1.93 1.57 1.62 1.63 1.64 1.89 1.96 1.97 2.30 2.71 2.85 2.75 2.39 2.33 2.50 3.13 3.98 4.48 4.31 3.61 3.09 2.68 2.40 1.93 1.42 1.14 1.01 0.98 0.96
1.63 1.58 1.80 1.71 1.63 1.74 1.72 1.72 1.88 2.00 1.93 1.97 2.19 2.45 2.18 2.16 1.91 1.43 1.68 1.81 1.85 2.07 2.19 2.34 2.66 2.92 2.60 2.64 1.98 2.06 2.92 3.66 4.36 4.38 3.75 3.04 2.71 2.40 1.95 1.59 1.34 1.16 1.07
1.50 1.61 1.64 1.74 1.81 1.54 1.73 1.86 1.82 1.89 1.94 1.87 1.88 2.21 2.22 2.20 1.95 1.53 1.48 1.55 1.75 2.06 2.13 2.26 2.13 2.36 2.54 2.85 2.65 2.04 2.17 2.48 3.39 4.32 4.30 3.57 2.90 2.42 2.19 2.06 1.88 1.60 1.37
1.51 1.44 1.51 1.76 1.88 1.64 1.83 1.50 1.61 1.86 1.97 1.81 1.82 1.74 1.72 1.86 2.00 1.94 1.67 1.53 1.63 1.81 1.94 2.03 2.18 2.37 2.48 2.74 2.75 2.03 1.57 1.71 2.44 3.52 4.19 4.00 3.39 2.73 2.41 2.48 2.74 2.67 2.19
1.84 1.52 1.53 1.75 1.89 1.83 1.87 1.74 1.95 1.79 1.71 1.68 1.71 1.75 1.75 1.69 1.60 1.84 1.94 1.82 1.71 1.53 1.56 1.68 1.79 1.92 1.99 2.32 2.57 1.93 1.50 1.58 1.82 2.41 2.99 3.38 3.38 3.14 2.90 3.00 3.54 3.90 3.70
1.86 1.73 1.72 1.92 1.92 1.87 1.91 1.86 1.89 1.79 1.76 1.77 1.69 1.64 1.88 1.88 1.75 1.87 1.75 1.74 1.70 1.37 1.34 1.45 1.52 1.60 1.72 1.97 1.92 1.73 1.77 1.88 1.80 1.80 1.92 2.19 2.57 2.83 3.04 3.24 3.57 4.04 4.29
1.64 1.73 1.82 2.01 1.91 1.87 1.82 1.89 1.88 1.85 1.90 1.95 1.86 1.70 1.70 1.78 1.81 1.80 1.78 1.56 1.48 1.36 1.39 1.34 1.35 1.53 1.64 2.06 2.18 1.94 1.87 2.03 1.79 1.60 1.51 1.54 1.69 1.97 2.28 2.60 3.07 3.56 3.97
1.56 1.71 1.80 1.74 1.72 1.75 1.65 1.86 1.78 1.74 1.81 1.86 1.78 2.04 1.95 1.69 1.79 1.79 1.86 2.00 1.85 1.71 1.69 1.64 1.68 1.83 2.00 2.17 2.35 2.12 1.81 1.72 1.50 1.40 1.36 1.33 1.39 1.47 1.64 1.81 2.06 2.40 2.66
1.52 1.55 1.53 1.55 1.59 1.63 1.74 1.90 1.81 1.78 1.88 1.78 1.76 2.11 2.00 1.71 1.69 1.73 1.80 2.03 2.30 2.07 1.90 1.93 2.06 2.16 2.19 2.19 2.23 2.03 1.84 1.71 1.48 1.34 1.28 1.23 1.23 1.24 1.27 1.31 1.41 1.58 1.74
1.50 1.55 1.53 1.55 1.57 1.51 1.59 1.77 1.69 1.79 1.87 1.84 1.85 1.93 1.94 1.82 1.82 1.86 1.92 2.04 2.27 2.26 2.05 1.97 2.21 2.29 2.17 2.00 2.19 2.11 1.90 1.78 1.49 1.29 1.16 1.14 1.16 1.19 1.22 1.23 1.21 1.27 1.35
1.52 1.56 1.59 1.67 1.63 1.59 1.64 1.73 1.63 1.76 1.82 1.92 1.91 1.87 1.88 2.05 2.07 1.92 1.97 2.02 2.20 2.39 2.29 2.15 2.29 2.29 2.16 1.97 1.96 1.95 1.87 1.79 1.57 1.49 1.29 1.20 1.15 1.13 1.13 1.17 1.24 1.27 1.26
1.64 1.63 1.67 1.77 1.70 1.72 1.79 1.69 1.66 1.73 1.80 1.83 1.96 2.12 2.09 2.13 2.06 1.97 2.06 2.09 2.22 2.47 2.46 2.32 2.28 2.29 2.20 2.12 2.00 1.82 1.61 1.56 1.55 1.67 1.48 1.32 1.24 1.21 1.16 1.12 1.09 1.08 1.05
1.74 1.72 1.66 1.68 1.76 1.89 1.93 1.75 1.68 1.65 1.59 1.57 1.73 1.97 2.22 2.50 2.34 2.20 2.14 2.11 2.17 2.28 2.47 2.33 2.23 2.40 2.34 2.23 2.06 1.79 1.60 1.54 1.35 1.43 1.46 1.34 1.19 1.09 1.04 1.00 0.98 0.96 0.91
1.66 1.73 1.76 1.75 1.75 1.77 1.76 1.76 1.79 1.75 1.67 1.55 1.58 1.68 1.79 2.04 2.24 2.39 2.21 2.05 2.10 2.23 2.38 2.38 2.44 2.68 2.74 2.59 2.28 1.96 1.81 1.68 1.51 1.28 1.31 1.25 1.16 1.07 1.03 0.98 0.95 0.93 0.93
1.73 1.89 1.95 1.93 1.91 1.86 1.71 1.83 1.95 1.82 1.80 1.68 1.64 1.61 1.50 1.63 1.81 1.99 1.96 2.16 2.23 2.21 2.32 2.41 2.62 3.03 3.04 2.79 2.32 2.06 1.96 1.91 1.71 1.45 1.34 1.17 1.05 0.96 0.97 1.02 1.00 0.95 0.90
2.21 2.25 2.17 2.13 2.07 1.84 1.95 1.96 1.94 1.92 1.97 1.90 1.82 1.75 1.61 1.52 1.55 1.65 1.72 1.87 2.07 2.12 2.19 2.33 2.50 2.78 2.89 2.77 2.50 2.24 2.02 1.89 1.73 1.55 1.44 1.36 1.21 1.12 1.01 0.93 1.03 1.01 0.99
2.40 2.41 2.45 2.37 2.26 2.28 2.25 1.94 1.88 1.86 1.92 1.93 2.01 2.02 1.70 1.44 1.58 1.55 1.64 1.67 1.64 1.74 1.88 2.04 2.22 2.38 2.69 2.81 2.72 2.34 2.16 1.99 1.72 1.60 1.55 1.45 1.35 1.20 1.04 0.99 1.06 0.94 0.94
2.37 2.32 2.24 2.13 2.08 2.06 2.05 1.79 1.69 1.58 1.68 1.73 1.73 1.74 1.72 1.58 1.51 1.53 1.53 1.44 1.35 1.36 1.45 1.51 1.61 1.88 2.23 2.65 2.86 2.62 2.46 2.25 1.96 1.71 1.49 1.42 1.37 1.24 1.08 0.99 1.07 0.95 0.85
2.20 2.08 1.98 1.96 1.94 1.95 1.95 1.76 1.65 1.50 1.50 1.50 1.50 1.52 1.57 1.49 1.51 1.43 1.33 1.31 1.27 1.21 1.22 1.26 1.26 1.42 1.72 2.07 2.47 2.62 2.34 2.01 1.81 1.59 1.48 1.38 1.28 1.32 1.26 1.10 1.06 1.09 0.92
2.26 2.17 2.09 2.08 2.06 2.08 2.17 1.93 1.79 1.65 1.66 1.65 1.71 1.68 1.64 1.51 1.47 1.33 1.21 1.21 1.14 1.07 1.13 1.11 1.05 1.07 1.19 1.48 1.91 2.08 2.16 1.94 1.70 1.55 1.30 1.26 1.21 1.25 1.27 1.09 0.94 0.92 0.88